(89) Julia
ephemeris date magn radius delta ra dec elong phase
Today25 Sep 202312.13.013 AU3.983 AU11h14m-02°54'12.9°4.3°
Opposition10 Apr 202410.82.955 AU2.006 AU12h42m-29°22'157.3°7.5°
(89) Julia - 2023-09-25
astro.vanbuitenen.nl


 
-1 year
-1 month
-1 day
Now
+1 day
+1 month
+1 year

The interactive orbit chart above shows the body's path through the solar system and its position at the given date. Green and blue lines are shown perpendicular to the ecliptic plane: Green if the path is above the ecliptic plane, blue if it is below. (Left-click and drag to rotate the view; Right-click and drag to move the view; Use scroll wheel to zoom in our out.)

The orbital elements of Julia are:

            e (Eccentricity)                : 0.1844753
            a (Semimajor axis)              : 2.5503343
            i (Inclination)                 : 16.12605
            Ω (Longitude of ascending node) : 311.54618
            ω (Argument of perihelion)      : 45.09496
            M (Mean anomaly)                : 116.58985
            Epoch                           : 2023 Feb 25

            L (Longitude of perihelion)     : 355.49139
            B (Latitude of perihelion)      : 11.34552
            P (Orbital period in years)     : 4.07            
        

The light curve chart below shows the estimated development of the minor planet's magnitude.


The all-sky chart below shows the path of the minor planet over the same period as the light curve. The current position is marked yellow.





The following chart shows the path of the minor planet in the next few days. The field of view is optimized for (~10x50) binoculars and finderscopes. A more printer-friendly version of the same chart can be found below.




Ephemerides:
Date       Time       RA (2000)    DEC (2000)    delta   radius  elong  phase   PA    magn
2023-09-25 00:00 UT   11 14 18.3   -02 54 39     3.983    3.013   12.9    4.3   260   12.1 
2023-09-25 12:20 UT   11 14 58.3   -03 00 05     3.981    3.013   13.1    4.3   260   12.2 
2023-09-26 00:00 UT   11 15 36.1   -03 05 13     3.980    3.014   13.4    4.4   261   12.2 
2023-09-27 00:00 UT   11 16 53.8   -03 15 48     3.977    3.014   13.9    4.6   262   12.2 
2023-09-28 00:00 UT   11 18 11.3   -03 26 24     3.974    3.014   14.5    4.8   263   12.2 
2023-09-29 00:00 UT   11 19 28.8   -03 37 01     3.971    3.014   15.0    4.9   265   12.2 
2023-09-30 00:00 UT   11 20 46.2   -03 47 39     3.968    3.015   15.6    5.1   266   12.2 
2023-10-01 00:00 UT   11 22 03.5   -03 58 18     3.964    3.015   16.1    5.3   267   12.2 
2023-10-02 00:00 UT   11 23 20.7   -04 08 58     3.960    3.015   16.7    5.5   268   12.2 
2023-10-03 00:00 UT   11 24 37.8   -04 19 39     3.957    3.016   17.3    5.7   268   12.2 
2023-10-04 00:00 UT   11 25 54.8   -04 30 21     3.953    3.016   17.8    5.8   269   12.2 
2023-10-05 00:00 UT   11 27 11.7   -04 41 04     3.948    3.016   18.4    6.0   270   12.2 
2023-10-06 00:00 UT   11 28 28.5   -04 51 47     3.944    3.016   19.0    6.2   271   12.2 
2023-10-07 00:00 UT   11 29 45.2   -05 02 32     3.940    3.016   19.6    6.4   271   12.2 
2023-10-08 00:00 UT   11 31 01.8   -05 13 17     3.935    3.017   20.2    6.6   272   12.2 
2023-10-09 00:00 UT   11 32 18.2   -05 24 03     3.930    3.017   20.7    6.7   273   12.2 
2023-10-10 00:00 UT   11 33 34.5   -05 34 50     3.926    3.017   21.3    6.9   273   12.3 
2023-10-11 00:00 UT   11 34 50.7   -05 45 38     3.920    3.017   21.9    7.1   274   12.3 
2023-10-12 00:00 UT   11 36 06.8   -05 56 27     3.915    3.018   22.5    7.3   274   12.3 
2023-10-13 00:00 UT   11 37 22.8   -06 07 16     3.910    3.018   23.1    7.5   275   12.3 
2023-10-14 00:00 UT   11 38 38.6   -06 18 06     3.904    3.018   23.7    7.6   275   12.3 
2023-10-15 00:00 UT   11 39 54.3   -06 28 56     3.899    3.018   24.3    7.8   276   12.3 
2023-10-16 00:00 UT   11 41 09.8   -06 39 47     3.893    3.018   24.9    8.0   276   12.3 
2023-10-17 00:00 UT   11 42 25.2   -06 50 39     3.887    3.018   25.5    8.2   276   12.3 
2023-10-18 00:00 UT   11 43 40.4   -07 01 31     3.881    3.019   26.2    8.4   277   12.3 


    Terminology:
            
    delta:  distance between minor planet and earth in AU
    radius: distance between minor planet and sun in AU
    magn:   magnitude (brightness) estimate    
    ra:     right ascension in hours (24h = 360deg)
    dec:    declination in degrees
    elong:  elongation in degrees (angle sun-earth-minor planet)    
    phase:  phase angle in degrees (angle sun-minor planet-earth)        
    AU:     Astronomical Unit (mean distance between earth and sun: 149597870.7 km
    

Orbital elements provided by the MPC (Minor Planet Center).
Calculations by a modified version of AAPlus, a C# implementation of the AA+ project by PJ Naughter from the algorithms presented in the book "Astronomical Algorithms" by Jean Meeus.
NGC2000 dso catalog and star labels from VizieR as provided by the Strasbourg astronomical Data Center.
Tycho2 catalog from the ESO archive.